Ely, MN

2:35 AM CDT on July 27, 2017 (GMT -0500)
Ely Municipal

Weather History for KELO - May, 2014

Change the Weather History Date:

Thursday, May 15, 2014

  Actual Average Record
Temperature  
Mean Temperature 38 °F -  
Max Temperature 42 °F 59 °F 84 °F (1998)
Min Temperature 33 °F 35 °F 24 °F (2004)
Degree Days  
Heating Degree Days 28    
Moisture  
Dew Point 26 °F    
Average Humidity 64    
Maximum Humidity 81    
Minimum Humidity 42    
Precipitation  
Precipitation 0.00 in - - ()
Sea Level Pressure  
Sea Level Pressure 30.15 in    
Wind  
Wind Speed 3 mph (North)    
Max Wind Speed 10 mph    
Max Gust Speed 17 mph    
Visibility 10 miles    
Events      
Averages and records for this station are not official NWS values.
T = Trace of Precipitation, MM = Missing Value Source: NWS Daily Summary

Daily Weather History Graph

Daily Weather History Graph

Search for Another Location

Airport or City:

Trip Planner

Search our weather history database for the weather conditions in past years. The results will help you decide how hot, cold, wet, or windy it might be!

Date:

Astronomy

May. 15, 2014 Rise Set
Actual Time 5:29 AM CDT 8:38 PM CDT
Civil Twilight 4:52 AM CDT 9:16 PM CDT
Nautical Twilight 4:04 AM CDT 10:04 PM CDT
Astronomical Twilight 3:04 AM CDT 11:04 PM CDT
Moon 9:47 PM CDT (5/15) 6:17 AM CDT (5/15)
Length of Visible Light 16h 23m
Length of Day
15h 09m
Full, 99% of the Moon is Illuminated
May 15
Full
May 21
Last Quarter
May 28
New
Jun 5
First Quarter
Jun 12
Full

Hourly Weather History & Observations

Time (CDT) Temp. Windchill Dew Point Humidity Pressure Visibility Wind Dir Wind Speed Gust Speed Precip Events Conditions
12:13 AM 37.4 °F - 28.4 °F 70% 30.24 in 10.0 mi Calm Calm - N/A   Overcast
12:33 AM 37.4 °F - 28.4 °F 70% 30.23 in 10.0 mi Calm Calm - N/A   Overcast
12:52 AM 35.6 °F 32.8 °F 28.4 °F 75% 30.23 in 10.0 mi NW 3.5 mph - N/A   Overcast
1:13 AM 35.6 °F - 30.2 °F 81% 30.22 in 10.0 mi Calm Calm - N/A   Overcast
1:33 AM 35.6 °F - 30.2 °F 81% 30.22 in 10.0 mi Calm Calm - N/A   Overcast
1:52 AM 35.6 °F - 30.2 °F 81% 30.21 in 10.0 mi Calm Calm - N/A   Overcast
2:13 AM 35.6 °F - 30.2 °F 81% 30.21 in 10.0 mi Calm Calm - N/A   Overcast
2:33 AM 35.6 °F - 30.2 °F 81% 30.20 in 10.0 mi Calm Calm - N/A   Overcast
2:52 AM 35.6 °F - 30.2 °F 81% 30.20 in 10.0 mi Calm Calm - N/A   Overcast
3:13 AM 35.6 °F 32.8 °F 30.2 °F 81% 30.20 in 10.0 mi North 3.5 mph - N/A   Overcast
3:33 AM 35.6 °F - 30.2 °F 81% 30.20 in 10.0 mi Calm Calm - N/A   Overcast
3:52 AM 35.6 °F 32.8 °F 30.2 °F 81% 30.20 in 10.0 mi NNW 3.5 mph - N/A   Overcast
4:13 AM 35.6 °F - 30.2 °F 81% 30.20 in 10.0 mi Calm Calm - N/A   Overcast
4:32 AM 35.6 °F - 30.2 °F 81% 30.19 in 10.0 mi Calm Calm - N/A   Overcast
4:53 AM 35.6 °F - 30.2 °F 81% 30.19 in 10.0 mi Calm Calm - N/A   Overcast
5:12 AM 35.6 °F 32.8 °F 30.2 °F 81% 30.19 in 10.0 mi NNW 3.5 mph - N/A   Overcast
5:33 AM 35.6 °F - 30.2 °F 81% 30.19 in 10.0 mi Calm Calm - N/A   Overcast
5:53 AM 35.6 °F 32.8 °F 30.2 °F 81% 30.19 in 10.0 mi North 3.5 mph - N/A   Overcast
6:12 AM 35.6 °F 32.8 °F 30.2 °F 81% 30.19 in 10.0 mi North 3.5 mph - N/A   Overcast
6:33 AM 35.6 °F 32.8 °F 30.2 °F 81% 30.19 in 10.0 mi North 3.5 mph - N/A   Overcast
6:53 AM 35.6 °F 31.7 °F 30.2 °F 81% 30.20 in 10.0 mi North 4.6 mph - N/A   Overcast
7:12 AM 35.6 °F - 30.2 °F 81% 30.20 in 10.0 mi Calm Calm - N/A   Overcast
7:33 AM 35.6 °F 32.8 °F 30.2 °F 81% 30.19 in 10.0 mi North 3.5 mph - N/A   Overcast
7:53 AM 35.6 °F 32.8 °F 30.2 °F 81% 30.19 in 10.0 mi North 3.5 mph - N/A   Overcast
8:12 AM 35.6 °F 31.7 °F 30.2 °F 81% 30.19 in 10.0 mi North 4.6 mph - N/A   Overcast
8:33 AM 35.6 °F 31.7 °F 30.2 °F 81% 30.19 in 10.0 mi North 4.6 mph - N/A   Overcast
8:53 AM 37.4 °F - 30.2 °F 75% 30.19 in 10.0 mi Calm Calm - N/A   Overcast
9:12 AM 37.4 °F 33.8 °F 28.4 °F 70% 30.19 in 10.0 mi NE 4.6 mph 16.1 mph N/A   Overcast
9:33 AM 39.2 °F 34.2 °F 26.6 °F 61% 30.18 in 10.0 mi NNE 6.9 mph - N/A   Overcast
9:53 AM 39.2 °F 33.0 °F 26.6 °F 61% 30.18 in 10.0 mi NE 9.2 mph - N/A   Overcast
10:13 AM 39.2 °F 33.6 °F 24.8 °F 56% 30.18 in 10.0 mi NNW 8.1 mph - N/A   Overcast
10:33 AM 41.0 °F 35.2 °F 24.8 °F 53% 30.17 in 10.0 mi NNE 9.2 mph - N/A   Overcast
10:53 AM 39.2 °F 34.2 °F 24.8 °F 56% 30.17 in 10.0 mi North 6.9 mph - N/A   Overcast
11:12 AM 39.2 °F 34.2 °F 24.8 °F 56% 30.16 in 10.0 mi North 6.9 mph - N/A   Overcast
11:33 AM 39.2 °F 35.0 °F 24.8 °F 56% 30.16 in 10.0 mi NNW 5.8 mph - N/A   Overcast
11:53 AM 39.2 °F 34.2 °F 24.8 °F 56% 30.16 in 10.0 mi NNW 6.9 mph 17.3 mph N/A   Overcast
12:12 PM 39.2 °F 34.2 °F 23.0 °F 52% 30.16 in 10.0 mi NNW 6.9 mph 17.3 mph N/A   Overcast
12:33 PM 39.2 °F 33.6 °F 23.0 °F 52% 30.15 in 10.0 mi North 8.1 mph 16.1 mph N/A   Overcast
12:53 PM 39.2 °F 34.2 °F 21.2 °F 49% 30.15 in 10.0 mi NW 6.9 mph 17.3 mph N/A   Overcast
1:12 PM 39.2 °F 34.2 °F 21.2 °F 49% 30.15 in 10.0 mi NNW 6.9 mph - N/A   Overcast
1:33 PM 41.0 °F 35.2 °F 23.0 °F 49% 30.15 in 10.0 mi NNE 9.2 mph - N/A   Overcast
2:12 PM 42.8 °F 38.0 °F 23.0 °F 46% 30.14 in 10.0 mi NNE 8.1 mph - N/A   Mostly Cloudy
2:33 PM 41.0 °F 35.2 °F 23.0 °F 49% 30.14 in 10.0 mi NE 9.2 mph - N/A   Overcast
2:53 PM 41.0 °F 35.8 °F 24.8 °F 53% 30.13 in 10.0 mi NNE 8.1 mph - N/A   Overcast
3:12 PM 41.0 °F 36.4 °F 23.0 °F 49% 30.13 in 10.0 mi North 6.9 mph 16.1 mph N/A   Overcast
3:33 PM 42.8 °F 37.0 °F 23.0 °F 46% 30.13 in 10.0 mi NNW 10.4 mph 17.3 mph N/A   Overcast
3:53 PM 42.8 °F 39.3 °F 24.8 °F 49% 30.13 in 10.0 mi NNW 5.8 mph - N/A   Overcast
4:12 PM 42.8 °F 40.1 °F 23.0 °F 46% 30.12 in 10.0 mi North 4.6 mph - N/A   Overcast
4:33 PM 42.8 °F 40.1 °F 23.0 °F 46% 30.11 in 10.0 mi North 4.6 mph - N/A   Overcast
4:53 PM 42.8 °F 39.3 °F 23.0 °F 46% 30.11 in 10.0 mi NNW 5.8 mph - N/A   Overcast
5:12 PM 42.8 °F 39.3 °F 21.2 °F 42% 30.11 in 10.0 mi North 5.8 mph - N/A   Overcast
5:33 PM 42.8 °F 38.6 °F 21.2 °F 42% 30.10 in 10.0 mi NNW 6.9 mph - N/A   Overcast
5:53 PM 42.8 °F 40.1 °F 23.0 °F 46% 30.09 in 10.0 mi NNE 4.6 mph - N/A   Overcast
6:13 PM 42.8 °F 40.1 °F 21.2 °F 42% 30.09 in 10.0 mi North 4.6 mph - N/A   Mostly Cloudy
6:33 PM 42.8 °F 39.3 °F 23.0 °F 46% 30.08 in 10.0 mi NNE 5.8 mph - N/A   Mostly Cloudy
6:53 PM 42.8 °F 40.1 °F 21.2 °F 42% 30.08 in 10.0 mi North 4.6 mph - N/A   Overcast
7:13 PM 42.8 °F - 23.0 °F 46% 30.08 in 10.0 mi Calm Calm - N/A   Overcast
7:33 PM 42.8 °F 41.1 °F 21.2 °F 42% 30.09 in 10.0 mi NNE 3.5 mph - N/A   Overcast
7:52 PM 42.8 °F - 23.0 °F 46% 30.09 in 10.0 mi Calm Calm - N/A   Overcast
8:13 PM 42.8 °F - 23.0 °F 46% 30.08 in 10.0 mi Calm Calm - N/A   Mostly Cloudy
8:32 PM 41.0 °F - 24.8 °F 53% 30.08 in 10.0 mi Calm Calm - N/A   Mostly Cloudy
8:53 PM 39.2 °F - 26.6 °F 61% 30.08 in 10.0 mi Calm Calm - N/A   Overcast
9:13 PM 37.4 °F - 26.6 °F 65% 30.08 in 10.0 mi Calm Calm - N/A   Overcast
9:32 PM 37.4 °F - 28.4 °F 70% 30.08 in 10.0 mi Calm Calm - N/A   Overcast
9:53 PM 37.4 °F - 26.6 °F 65% 30.08 in 10.0 mi Calm Calm - N/A   Mostly Cloudy
10:13 PM 35.6 °F - 26.6 °F 70% 30.08 in 10.0 mi Calm Calm - N/A   Scattered Clouds
10:32 PM 33.8 °F - 26.6 °F 75% 30.08 in 10.0 mi Calm Calm - N/A   Scattered Clouds
10:53 PM 33.8 °F - 26.6 °F 75% 30.08 in 10.0 mi Calm Calm - N/A   Mostly Cloudy
11:13 PM 33.8 °F - 26.6 °F 75% 30.08 in 10.0 mi Calm Calm - N/A   Overcast
11:33 PM 33.8 °F - 28.4 °F 81% 30.07 in 10.0 mi Calm Calm - N/A   Overcast
11:53 PM 33.8 °F - 28.4 °F 81% 30.07 in 10.0 mi Calm Calm - N/A   Overcast